Tracking 19625 objects as of 26-May-2019
HD Live streaming from Space Station
objects crossing your sky now
Watch Starlink satellites crossing your sky!

COSMOS 1230

Track COSMOS 1230 now!
10-day predictions
COSMOS 1230 is classified as:


NORAD ID: 12109
Int'l Code: 1980-102C
Perigee: 1,406.4 km
Apogee: 1,471.3 km
Inclination: 74.0 °
Period: 114.5 minutes
Semi major axis: 7809 km
RCS: 0.7136 m2 (medium)
Launch date: December 23, 1980
Source: Commonwealth of Independent States (former USSR) (CIS)
Launch site: PLESETSK MISSILE AND SPACE COMPLEX (PKMTR)
aabbcc
Your satellite tracking list
Your tracking list is empty




NASA's NSSDC Master Catalog

Two Line Element Set (TLE):
1 12109U 80102C   19145.68118758 -.00000022 +00000-0 -34577-4 0  9994
2 12109 073.9934 203.1798 0041570 347.7102 118.3419 12.57877221764063
Source of the keplerian elements: AFSPC